Kosmos-1091

operational
NORAD ID: 11320 Int'l Des: 1979-028 Owner: VMF Country: SU
LEOCIRCULARPOLAR

Über Kosmos-1091

Beschreibung wird geladen...

Live-Position

3D-Globus wird geladen...

Nächste Überflüge

Höhenverlauf

Altitude vs Time

uPlot chart will show altitude changes over time

Zweizeiliger Elementsatz

1 11320U 79028A 26063.46903492 .00000052 00000-0 38554-4 0 9993
2 11320 82.9235 211.0594 0031751 95.7101 326.1145 13.74911088352745
Epoch: 4. März 2026 • Age: 19 hours

Aktueller Status

Höhe 1033.6 km
Geschwindigkeit 7.32 km/s
Subsatellitenpunkt -80.72°S, 69.9°E
Startdatum 7. Apr. 1979
Alter 46.9 years
Typ other

Technische Details

Klassifizierung Payload
Masse 800.00 kg
Trockenmasse 800.00 kg
Gesamtmasse 800.00 kg
Länge 5.00 m
Durchmesser 2.10 m
Spannweite 17.00 m
Form Cyl + Ant
Hersteller OAZ
Bus-Typ KAUR-1 11F627
Phasenstatus In Orbit
Besitzer/Staat VMF/SU

Große Konstellationen

Loading constellations...